Weather History for Cape Girardeau, MO

Change the Weather History Date:

Wednesday, February 20, 2013

  Actual Average Record
Temperature  
Mean Temperature 28 °F 39 °F  
Max Temperature 32 °F 49 °F 73 °F (2011)
Min Temperature 23 °F 29 °F 13 °F (1978)
Degree Days  
Heating Degree Days 37 26  
Month to date heating degree days 522 566  
Since 1 July heating degree days 3021 3304  
Cooling Degree Days 0 0  
Month to date cooling degree days 0 0  
Year to date cooling degree days 0 0  
Moisture  
Dew Point 14 °F    
Average Humidity 55    
Maximum Humidity 63    
Minimum Humidity 46    
Precipitation  
Precipitation 0.00 in 0.11 in 1.32 in (1994)
Month to date precipitation 1.40 2.44  
Year to date precipitation 4.98 5.91  
Sea Level Pressure  
Sea Level Pressure 30.34 in    
Wind  
Wind Speed 9 mph (North)    
Max Wind Speed 14 mph    
Max Gust Speed 17 mph    
Visibility 10 miles    
Events      
T = Trace of Precipitation, MM = Missing Value Source: NWS Daily Summary

Daily Weather History Graph

Daily Weather History Graph

Search for Another Location

Airport:

Trip Planner

Search our weather history database for the weather conditions in past years. The results will help you decide how hot, cold, wet, or windy it might be!

Date:

Astronomy

Feb. 20, 2013 Rise Set
Actual Time 6:40 AM CST 5:43 PM CST
Civil Twilight 6:14 AM CST 6:10 PM CST
Nautical Twilight 5:44 AM CST 6:40 PM CST
Astronomical Twilight 5:13 AM CST 7:10 PM CST
Moon 1:08 PM CST (2/20) 2:57 AM CST (2/20)
Length of Visible Light 11h 55m
Length of Day
11h 02m
Waxing Gibbous, 76% of the Moon is Illuminated
Feb 20
Waxing Gibbous
Feb 25
Full
Mar 4
Last Quarter
Mar 11
New
Mar 19
First Quarter

Hourly Weather History & Observations

Time (CST) Temp. Windchill Dew Point Humidity Pressure Visibility Wind Dir Wind Speed Gust Speed Precip Events Conditions
12:53 AM 28.0 °F 20.8 °F 12.9 °F 53% 30.33 in 10.0 mi NNW 6.9 mph - N/A   Clear
1:53 AM 27.0 °F 19.5 °F 12.9 °F 56% 30.32 in 10.0 mi NNW 6.9 mph - N/A   Clear
2:53 AM 26.1 °F 17.6 °F 12.9 °F 58% 30.32 in 10.0 mi North 8.1 mph - N/A   Clear
3:53 AM 24.1 °F 18.2 °F 12.0 °F 60% 30.33 in 10.0 mi NW 4.6 mph - N/A   Clear
4:53 AM 25.0 °F 18.1 °F 10.9 °F 55% 30.34 in 10.0 mi NNW 5.8 mph - N/A   Clear
5:53 AM 25.0 °F 16.3 °F 10.9 °F 55% 30.33 in 10.0 mi North 8.1 mph - N/A   Clear
6:53 AM 24.8 °F 15.3 °F 12.2 °F 59% 30.34 in 10.0 mi North 9.2 mph - N/A   Clear
7:53 AM 25.0 °F 13.6 °F 10.9 °F 55% 30.38 in 10.0 mi North 12.7 mph - N/A   Clear
8:53 AM 26.1 °F 16.8 °F 10.9 °F 53% 30.40 in 10.0 mi NNW 9.2 mph - N/A   Clear
9:53 AM 27.0 °F 18.0 °F 10.9 °F 51% 30.40 in 10.0 mi NNW 9.2 mph - N/A   Clear
10:53 AM 28.0 °F 20.8 °F 10.9 °F 49% 30.40 in 10.0 mi North 6.9 mph - N/A   Clear
11:53 AM 28.9 °F 21.1 °F 12.0 °F 49% 30.39 in 10.0 mi North 8.1 mph - N/A   Clear
12:53 PM 28.9 °F 21.9 °F 12.9 °F 51% 30.38 in 10.0 mi North 6.9 mph - N/A   Clear
1:53 PM 30.0 °F 25.2 °F 12.9 °F 49% 30.35 in 10.0 mi NNE 4.6 mph - N/A   Partly Cloudy
2:53 PM 30.9 °F 22.2 °F 14.0 °F 50% 30.33 in 10.0 mi NNE 10.4 mph - N/A   Clear
3:53 PM 32.0 °F 22.1 °F 17.1 °F 54% 30.29 in 10.0 mi NE 13.8 mph - N/A   Partly Cloudy
4:53 PM 30.0 °F 21.7 °F 15.1 °F 54% 30.30 in 10.0 mi NE 9.2 mph - N/A   Scattered Clouds
5:53 PM 30.0 °F 21.7 °F 17.1 °F 59% 30.30 in 10.0 mi NNE 9.2 mph - N/A   Overcast
6:53 PM 28.9 °F 19.8 °F 16.0 °F 58% 30.30 in 10.0 mi NE 10.4 mph - N/A   Overcast
7:53 PM 28.9 °F 21.1 °F 16.0 °F 58% 30.31 in 10.0 mi NE 8.1 mph - N/A   Overcast
8:53 PM 28.0 °F 20.0 °F 18.0 °F 66% 30.30 in 10.0 mi NE 8.1 mph - N/A   Clear
9:53 PM 28.0 °F 18.6 °F 18.0 °F 66% 30.30 in 10.0 mi NE 10.4 mph - N/A   Partly Cloudy
10:53 PM 28.0 °F 19.3 °F 18.0 °F 66% 30.30 in 10.0 mi NE 9.2 mph - N/A   Mostly Cloudy
11:53 PM 27.0 °F 17.3 °F 18.0 °F 69% 30.30 in 10.0 mi ENE 10.4 mph - N/A   Overcast